Time,TemperatureF,DewpointF,PressureIn,WindDirection,WindDirectionDegrees,WindSpeedMPH,WindSpeedGustMPH,Humidity,HourlyPrecipIn,Conditions,Clouds,dailyrainin,SoftwareType,DateUTC
2013-05-30 00:00:00,63.5,59.9,28.96,SE,135,0.0,0.0,88,0.04,,---,0.53,VWS V13.01,2013-05-30 05:00:00,
2013-05-30 00:06:00,63.5,59.9,28.96,SE,135,0.0,0.0,88,0.00,,---,0.00,VWS V13.01,2013-05-30 05:06:00,
2013-05-30 00:12:00,63.6,60.0,28.95,SE,135,0.0,0.0,88,0.00,,---,0.00,VWS V13.01,2013-05-30 05:12:00,
2013-05-30 00:18:00,63.5,59.9,28.95,SE,135,2.2,2.2,88,0.00,,---,0.00,VWS V13.01,2013-05-30 05:18:00,
2013-05-30 00:24:00,63.6,60.0,28.95,SE,135,2.6,2.6,88,0.00,,---,0.00,VWS V13.01,2013-05-30 05:24:00,
2013-05-30 00:30:00,63.6,60.0,28.95,SSE,158,0.0,0.0,88,0.00,,---,0.00,VWS V13.01,2013-05-30 05:30:00,
2013-05-30 00:36:00,63.6,60.0,28.95,ESE,112,15.2,15.2,88,0.00,,---,0.00,VWS V13.01,2013-05-30 05:36:00,
2013-05-30 00:42:00,64.0,60.4,28.95,ESE,112,0.0,0.0,88,0.00,,---,0.00,VWS V13.01,2013-05-30 05:42:00,
2013-05-30 00:48:00,64.0,60.4,28.95,SE,135,0.0,0.0,88,0.00,,---,0.00,VWS V13.01,2013-05-30 05:48:00,
2013-05-30 00:54:00,64.2,60.6,28.94,SE,135,0.0,0.0,88,0.00,,---,0.00,VWS V13.01,2013-05-30 05:54:00,
2013-05-30 01:00:00,64.2,60.3,28.94,SE,135,0.0,0.0,87,0.00,,---,0.00,VWS V13.01,2013-05-30 06:00:00,
2013-05-30 01:07:00,64.4,60.5,28.94,SE,135,0.0,0.0,87,0.00,,---,0.00,VWS V13.01,2013-05-30 06:07:00,
2013-05-30 01:13:00,64.5,60.5,28.94,SE,135,0.0,0.0,87,0.00,,---,0.00,VWS V13.01,2013-05-30 06:13:00,
2013-05-30 01:19:00,64.5,60.5,28.94,SE,135,0.0,0.0,87,0.00,,---,0.00,VWS V13.01,2013-05-30 06:19:00,
2013-05-30 01:25:00,64.7,60.8,28.94,SE,135,0.0,0.0,87,0.00,,---,0.00,VWS V13.01,2013-05-30 06:25:00,
2013-05-30 01:31:00,64.9,60.9,28.94,ESE,112,0.0,0.0,87,0.00,,---,0.00,VWS V13.01,2013-05-30 06:31:00,
2013-05-30 01:37:00,64.9,60.9,28.93,SE,135,14.2,14.2,87,0.00,,---,0.00,VWS V13.01,2013-05-30 06:37:00,
2013-05-30 01:43:00,65.1,61.1,28.93,ESE,112,2.6,2.6,87,0.00,,---,0.00,VWS V13.01,2013-05-30 06:43:00,
2013-05-30 01:49:00,65.1,61.1,28.94,SSE,158,13.8,13.8,87,0.00,,---,0.00,VWS V13.01,2013-05-30 06:49:00,
2013-05-30 01:55:00,65.3,61.3,28.94,SSE,158,15.2,15.2,87,0.00,,---,0.00,VWS V13.01,2013-05-30 06:55:00,
2013-05-30 02:01:00,65.4,61.4,28.94,ESE,112,0.0,0.0,87,0.00,,---,0.00,VWS V13.01,2013-05-30 07:01:00,
2013-05-30 02:07:00,65.4,61.4,28.94,ESE,112,0.0,0.0,87,0.00,,---,0.00,VWS V13.01,2013-05-30 07:07:00,
2013-05-30 02:13:00,65.4,61.4,28.94,ESE,112,2.6,2.6,87,0.00,,---,0.00,VWS V13.01,2013-05-30 07:13:00,
2013-05-30 02:19:00,65.6,61.6,28.94,SE,135,0.0,0.0,87,0.00,,---,0.00,VWS V13.01,2013-05-30 07:19:00,
2013-05-30 02:25:00,65.8,61.8,28.93,SE,135,25.0,25.0,87,0.00,,---,0.00,VWS V13.01,2013-05-30 07:25:00,
2013-05-30 02:31:00,66.0,62.0,28.93,SE,135,1.2,1.2,87,0.00,,---,0.00,VWS V13.01,2013-05-30 07:31:00,
2013-05-30 02:37:00,66.0,62.0,28.92,SE,135,1.6,1.6,87,0.00,,---,0.00,VWS V13.01,2013-05-30 07:37:00,
2013-05-30 02:43:00,66.2,62.2,28.92,SE,135,12.4,12.4,87,0.00,,---,0.00,VWS V13.01,2013-05-30 07:43:00,
2013-05-30 02:49:00,66.3,62.6,28.92,SE,135,0.0,0.0,88,0.00,,---,0.00,VWS V13.01,2013-05-30 07:49:00,
2013-05-30 02:55:00,66.3,62.6,28.92,SE,135,31.2,31.2,88,0.00,,---,0.00,VWS V13.01,2013-05-30 07:55:00,
2013-05-30 03:01:00,66.5,62.8,28.92,SE,135,13.8,13.8,88,0.00,,---,0.00,VWS V13.01,2013-05-30 08:01:00,
2013-05-30 03:07:00,66.7,63.0,28.91,SSE,158,6.2,6.2,88,0.00,,---,0.00,VWS V13.01,2013-05-30 08:07:00,
2013-05-30 03:14:00,66.7,63.0,28.91,ESE,112,12.4,12.4,88,0.00,,---,0.00,VWS V13.01,2013-05-30 08:14:00,
2013-05-30 03:20:00,66.9,63.2,28.91,SSE,158,12.8,12.8,88,0.00,,---,0.00,VWS V13.01,2013-05-30 08:20:00,
2013-05-30 03:26:00,66.9,63.2,28.90,ESE,112,13.4,13.4,88,0.00,,---,0.00,VWS V13.01,2013-05-30 08:26:00,
2013-05-30 03:32:00,66.9,63.2,28.90,SSE,158,0.0,0.0,88,0.00,,---,0.00,VWS V13.01,2013-05-30 08:32:00,
2013-05-30 03:38:00,67.1,63.1,28.90,SE,135,16.0,16.0,87,0.00,,---,0.00,VWS V13.01,2013-05-30 08:38:00,
2013-05-30 03:44:00,67.1,63.1,28.90,SE,135,0.0,0.0,87,0.00,,---,0.00,VWS V13.01,2013-05-30 08:44:00,
2013-05-30 03:50:00,67.1,63.1,28.90,SE,135,1.6,1.6,87,0.00,,---,0.00,VWS V13.01,2013-05-30 08:50:00,
2013-05-30 03:56:00,67.1,63.1,28.90,SE,135,0.0,0.0,87,0.00,,---,0.00,VWS V13.01,2013-05-30 08:56:00,
2013-05-30 04:02:00,67.1,63.1,28.89,SE,135,5.2,5.2,87,0.00,,---,0.00,VWS V13.01,2013-05-30 09:02:00,
2013-05-30 04:08:00,67.1,63.1,28.89,SE,135,21.8,21.8,87,0.00,,---,0.00,VWS V13.01,2013-05-30 09:08:00,
2013-05-30 04:14:00,67.2,63.2,28.89,SE,135,13.4,13.4,87,0.00,,---,0.00,VWS V13.01,2013-05-30 09:14:00,
2013-05-30 04:21:00,67.2,62.9,28.89,SE,135,14.6,14.6,86,0.00,,---,0.00,VWS V13.01,2013-05-30 09:21:00,
2013-05-30 04:27:00,67.2,62.9,28.89,SSE,158,17.8,17.8,86,0.00,,---,0.00,VWS V13.01,2013-05-30 09:27:00,
2013-05-30 04:33:00,67.2,62.9,28.88,SE,135,4.4,4.4,86,0.00,,---,0.00,VWS V13.01,2013-05-30 09:33:00,
2013-05-30 04:39:00,67.2,62.9,28.88,SE,135,12.4,12.4,86,0.00,,---,0.00,VWS V13.01,2013-05-30 09:39:00,
2013-05-30 04:45:00,67.1,62.8,28.88,SE,135,7.6,7.6,86,0.00,,---,0.00,VWS V13.01,2013-05-30 09:45:00,
2013-05-30 04:51:00,67.1,62.8,28.88,SSE,158,10.6,10.6,86,0.00,,---,0.00,VWS V13.01,2013-05-30 09:51:00,
2013-05-30 04:57:00,67.1,62.8,28.88,SE,135,14.2,14.2,86,0.00,,---,0.00,VWS V13.01,2013-05-30 09:57:00,
2013-05-30 05:03:00,66.9,62.6,28.88,SE,135,12.0,12.0,86,0.00,,---,0.00,VWS V13.01,2013-05-30 10:03:00,
2013-05-30 05:09:00,66.9,62.2,28.88,SE,135,2.6,2.6,85,0.00,,---,0.00,VWS V13.01,2013-05-30 10:09:00,
2013-05-30 05:15:00,66.9,62.2,28.88,SE,135,0.0,0.0,85,0.00,,---,0.00,VWS V13.01,2013-05-30 10:15:00,
2013-05-30 05:21:00,66.9,62.2,28.88,SE,135,21.4,21.4,85,0.00,,---,0.00,VWS V13.01,2013-05-30 10:21:00,
2013-05-30 05:27:00,66.9,62.2,28.89,SE,135,0.0,0.0,85,0.00,,---,0.00,VWS V13.01,2013-05-30 10:27:00,
2013-05-30 05:33:00,66.9,62.2,28.89,SE,135,0.0,0.0,85,0.00,,---,0.00,VWS V13.01,2013-05-30 10:33:00,
2013-05-30 05:39:00,66.9,62.2,28.88,SE,135,16.0,16.0,85,0.00,,---,0.00,VWS V13.01,2013-05-30 10:39:00,
2013-05-30 05:45:00,66.9,62.2,28.88,SE,135,0.0,0.0,85,0.00,,---,0.00,VWS V13.01,2013-05-30 10:45:00,
2013-05-30 05:51:00,66.9,62.2,28.88,SE,135,0.0,0.0,85,0.00,,---,0.00,VWS V13.01,2013-05-30 10:51:00,
2013-05-30 05:57:00,66.7,62.0,28.87,SE,135,0.0,0.0,85,0.00,,---,0.00,VWS V13.01,2013-05-30 10:57:00,
2013-05-30 06:03:00,66.7,62.0,28.87,SE,135,0.0,0.0,85,0.00,,---,0.00,VWS V13.01,2013-05-30 11:03:00,
2013-05-30 06:09:00,66.5,61.9,28.87,SE,135,0.0,0.0,85,0.00,,---,0.00,VWS V13.01,2013-05-30 11:09:00,
2013-05-30 06:15:00,66.5,61.9,28.87,SE,135,0.0,0.0,85,0.00,,---,0.00,VWS V13.01,2013-05-30 11:15:00,
2013-05-30 06:21:00,66.5,61.9,28.88,SE,135,4.0,4.0,85,0.00,,---,0.00,VWS V13.01,2013-05-30 11:21:00,
2013-05-30 06:28:00,66.5,61.9,28.88,SE,135,4.0,4.0,85,0.00,,---,0.00,VWS V13.01,2013-05-30 11:28:00,
2013-05-30 06:34:00,66.3,61.7,28.88,SE,135,3.4,3.4,85,0.00,,---,0.00,VWS V13.01,2013-05-30 11:34:00,
2013-05-30 06:40:00,66.3,61.7,28.89,SE,135,0.0,0.0,85,0.00,,---,0.00,VWS V13.01,2013-05-30 11:40:00,
2013-05-30 06:46:00,66.3,61.7,28.89,SE,135,2.2,2.2,85,0.00,,---,0.00,VWS V13.01,2013-05-30 11:46:00,
2013-05-30 06:52:00,66.3,61.7,28.89,SE,135,13.8,13.8,85,0.00,,---,0.00,VWS V13.01,2013-05-30 11:52:00,
2013-05-30 06:58:00,66.3,61.7,28.89,SSE,158,1.6,1.6,85,0.00,,---,0.00,VWS V13.01,2013-05-30 11:58:00,
2013-05-30 07:04:00,66.5,61.9,28.89,SE,135,0.0,0.0,85,0.00,,---,0.00,VWS V13.01,2013-05-30 12:04:00,
2013-05-30 07:10:00,66.5,61.5,28.89,South,180,9.2,9.2,84,0.00,,---,0.00,VWS V13.01,2013-05-30 12:10:00,
2013-05-30 07:16:00,66.7,61.7,28.90,SE,135,0.0,0.0,84,0.00,,---,0.00,VWS V13.01,2013-05-30 12:16:00,
2013-05-30 07:22:00,66.7,61.7,28.89,SE,135,3.0,3.0,84,0.00,,---,0.00,VWS V13.01,2013-05-30 12:22:00,
2013-05-30 07:28:00,66.7,61.7,28.90,SE,135,0.0,0.0,84,0.00,,---,0.00,VWS V13.01,2013-05-30 12:28:00,
2013-05-30 07:34:00,66.7,61.7,28.89,SE,135,11.0,11.0,84,0.00,,---,0.00,VWS V13.01,2013-05-30 12:34:00,
2013-05-30 07:40:00,66.7,61.7,28.90,SE,135,0.0,0.0,84,0.00,,---,0.00,VWS V13.01,2013-05-30 12:40:00,
2013-05-30 07:46:00,66.7,61.7,28.89,SE,135,6.6,6.6,84,0.00,,---,0.00,VWS V13.01,2013-05-30 12:46:00,
2013-05-30 07:52:00,66.9,61.9,28.89,SSE,158,16.4,16.4,84,0.00,,---,0.00,VWS V13.01,2013-05-30 12:52:00,
2013-05-30 07:58:00,66.9,61.9,28.89,ESE,112,1.6,1.6,84,0.00,,---,0.00,VWS V13.01,2013-05-30 12:58:00,
2013-05-30 08:04:00,67.1,62.5,28.90,SE,135,16.4,16.4,85,0.00,,---,0.00,VWS V13.01,2013-05-30 13:04:00,
2013-05-30 08:10:00,67.2,62.2,28.90,SSE,158,11.6,11.6,84,0.00,,---,0.00,VWS V13.01,2013-05-30 13:10:00,
2013-05-30 08:16:00,67.6,62.6,28.89,SE,135,21.8,21.8,84,0.00,,---,0.00,VWS V13.01,2013-05-30 13:16:00,
2013-05-30 08:22:00,67.6,62.6,28.90,ESE,112,35.2,35.2,84,0.00,,---,0.00,VWS V13.01,2013-05-30 13:22:00,
2013-05-30 08:28:00,67.8,62.8,28.91,SE,135,13.8,13.8,84,0.00,,---,0.00,VWS V13.01,2013-05-30 13:28:00,
2013-05-30 08:34:00,67.8,62.5,28.90,SE,135,6.6,6.6,83,0.00,,---,0.00,VWS V13.01,2013-05-30 13:34:00,
2013-05-30 08:40:00,68.1,62.8,28.91,SE,135,29.8,29.8,83,0.00,,---,0.00,VWS V13.01,2013-05-30 13:40:00,
2013-05-30 08:46:00,68.1,62.8,28.90,SE,135,7.6,7.6,83,0.00,,---,0.00,VWS V13.01,2013-05-30 13:46:00,
2013-05-30 08:52:00,68.1,62.8,28.90,SE,135,19.2,19.2,83,0.00,,---,0.00,VWS V13.01,2013-05-30 13:52:00,
2013-05-30 08:58:00,68.1,62.4,28.91,SE,135,0.0,0.0,82,0.00,,---,0.00,VWS V13.01,2013-05-30 13:58:00,
2013-05-30 09:04:00,68.5,62.8,28.91,South,180,2.6,2.6,82,0.00,,---,0.00,VWS V13.01,2013-05-30 14:04:00,
2013-05-30 09:11:00,68.7,63.0,28.91,SE,135,18.6,18.6,82,0.00,,---,0.00,VWS V13.01,2013-05-30 14:11:00,
2013-05-30 09:17:00,68.7,63.0,28.91,SSE,158,0.0,0.0,82,0.00,,---,0.00,VWS V13.01,2013-05-30 14:17:00,
2013-05-30 09:23:00,68.7,63.0,28.90,SE,135,14.6,14.6,82,0.00,,---,0.00,VWS V13.01,2013-05-30 14:23:00,
2013-05-30 09:29:00,68.7,63.0,28.90,SSE,158,18.2,18.2,82,0.00,,---,0.00,VWS V13.01,2013-05-30 14:29:00,
2013-05-30 09:35:00,68.7,62.6,28.91,ESE,112,20.4,20.4,81,0.00,,---,0.00,VWS V13.01,2013-05-30 14:35:00,
2013-05-30 09:41:00,68.7,62.6,28.90,SE,135,0.0,0.0,81,0.00,,---,0.00,VWS V13.01,2013-05-30 14:41:00,
2013-05-30 09:47:00,69.0,63.3,28.91,SE,135,0.0,0.0,82,0.00,,---,0.00,VWS V13.01,2013-05-30 14:47:00,
2013-05-30 09:53:00,69.4,63.3,28.90,SSE,158,0.0,0.0,81,0.00,,---,0.00,VWS V13.01,2013-05-30 14:53:00,
2013-05-30 09:59:00,69.6,63.5,28.90,SSE,158,15.6,15.6,81,0.00,,---,0.00,VWS V13.01,2013-05-30 14:59:00,
2013-05-30 10:05:00,69.6,63.2,28.91,SSE,158,10.2,10.2,80,0.00,,---,0.00,VWS V13.01,2013-05-30 15:05:00,
2013-05-30 10:11:00,69.8,63.4,28.91,SE,135,5.8,5.8,80,0.00,,---,0.00,VWS V13.01,2013-05-30 15:11:00,
2013-05-30 10:17:00,70.1,63.7,28.91,North,0,0.0,0.0,80,0.00,,---,0.00,VWS V13.01,2013-05-30 15:17:00,
2013-05-30 10:23:00,70.3,63.8,28.92,South,180,0.0,0.0,80,0.00,,---,0.00,VWS V13.01,2013-05-30 15:23:00,
2013-05-30 10:29:00,70.5,64.0,28.91,SE,135,0.0,0.0,80,0.00,,---,0.00,VWS V13.01,2013-05-30 15:29:00,
2013-05-30 10:35:00,70.7,63.9,28.91,SE,135,0.0,0.0,79,0.00,,---,0.00,VWS V13.01,2013-05-30 15:35:00,
2013-05-30 10:41:00,70.8,63.6,28.91,SSW,202,0.0,0.0,78,0.00,,---,0.00,VWS V13.01,2013-05-30 15:41:00,
2013-05-30 10:47:00,71.2,64.0,28.92,SSE,158,8.4,8.4,78,0.00,,---,0.00,VWS V13.01,2013-05-30 15:47:00,
2013-05-30 10:53:00,71.0,63.8,28.92,SE,135,1.6,1.6,78,0.00,,---,0.00,VWS V13.01,2013-05-30 15:53:00,
2013-05-30 10:59:00,70.8,63.2,28.93,SE,135,0.0,0.0,77,0.00,,---,0.00,VWS V13.01,2013-05-30 15:59:00,
2013-05-30 11:05:00,70.7,63.1,28.92,South,180,1.2,1.2,77,0.00,,---,0.00,VWS V13.01,2013-05-30 16:05:00,
2013-05-30 11:11:00,70.5,63.0,28.92,SE,135,10.6,10.6,77,0.00,,---,0.00,VWS V13.01,2013-05-30 16:11:00,
2013-05-30 11:17:00,70.3,62.8,28.93,SW,225,6.6,6.6,77,0.00,,---,0.00,VWS V13.01,2013-05-30 16:17:00,
2013-05-30 11:23:00,70.3,63.1,28.93,SE,135,0.0,0.0,78,0.00,,---,0.00,VWS V13.01,2013-05-30 16:23:00,
2013-05-30 11:29:00,69.9,62.4,28.93,SW,225,0.0,0.0,77,0.00,,---,0.00,VWS V13.01,2013-05-30 16:29:00,
2013-05-30 11:35:00,69.8,62.3,28.93,SE,135,0.0,0.0,77,0.00,,---,0.00,VWS V13.01,2013-05-30 16:35:00,
2013-05-30 11:42:00,69.6,62.4,28.92,SE,135,0.0,0.0,78,0.00,,---,0.00,VWS V13.01,2013-05-30 16:42:00,
2013-05-30 11:48:00,69.6,62.4,28.92,ESE,112,22.8,22.8,78,0.00,,---,0.00,VWS V13.01,2013-05-30 16:48:00,
2013-05-30 11:54:00,69.6,62.8,28.92,SW,225,0.0,0.0,79,0.00,,---,0.00,VWS V13.01,2013-05-30 16:54:00,
2013-05-30 12:00:00,69.6,62.8,28.92,SE,135,0.0,0.0,79,0.00,,---,0.00,VWS V13.01,2013-05-30 17:00:00,
2013-05-30 12:06:00,70.3,63.5,28.92,SE,135,0.0,0.0,79,0.00,,---,0.00,VWS V13.01,2013-05-30 17:06:00,
2013-05-30 12:12:00,70.7,63.5,28.92,South,180,28.6,28.6,78,0.00,,---,0.00,VWS V13.01,2013-05-30 17:12:00,
2013-05-30 12:18:00,71.2,63.6,28.92,SE,135,9.2,9.2,77,0.00,,---,0.00,VWS V13.01,2013-05-30 17:18:00,
2013-05-30 12:24:00,71.7,63.7,28.92,SSW,202,5.2,5.2,76,0.00,,---,0.00,VWS V13.01,2013-05-30 17:24:00,
2013-05-30 12:30:00,71.9,63.5,28.92,SE,135,0.0,0.0,75,0.00,,---,0.00,VWS V13.01,2013-05-30 17:30:00,
2013-05-30 12:36:00,72.1,63.8,28.92,West,270,32.6,32.6,75,0.00,,---,0.00,VWS V13.01,2013-05-30 17:36:00,
2013-05-30 12:42:00,72.1,63.4,28.92,South,180,0.0,0.0,74,0.00,,---,0.00,VWS V13.01,2013-05-30 17:42:00,
2013-05-30 12:48:00,72.3,63.6,28.92,SSE,158,24.0,24.0,74,0.00,,---,0.00,VWS V13.01,2013-05-30 17:48:00,
2013-05-30 12:54:00,72.5,63.8,28.91,SE,135,0.0,0.0,74,0.00,,---,0.00,VWS V13.01,2013-05-30 17:54:00,
2013-05-30 13:00:00,72.5,63.4,28.90,SSE,158,0.0,0.0,73,0.00,,---,0.00,VWS V13.01,2013-05-30 18:00:00,
2013-05-30 13:06:00,72.5,63.8,28.91,ESE,112,0.0,0.0,74,0.00,,---,0.00,VWS V13.01,2013-05-30 18:06:00,
2013-05-30 13:12:00,72.3,63.9,28.91,South,180,5.2,5.2,75,0.00,,---,0.00,VWS V13.01,2013-05-30 18:12:00,
2013-05-30 13:18:00,71.7,63.7,28.92,SSE,158,0.0,0.0,76,0.00,,---,0.00,VWS V13.01,2013-05-30 18:18:00,
2013-05-30 13:24:00,70.7,63.1,28.91,SE,135,0.0,0.0,77,0.08,,---,0.08,VWS V13.01,2013-05-30 18:24:00,
2013-05-30 13:30:00,69.8,63.0,28.91,South,180,0.0,0.0,79,0.10,,---,0.10,VWS V13.01,2013-05-30 18:30:00,
2013-05-30 13:36:00,69.4,63.0,28.91,SSW,202,0.0,0.0,80,0.12,,---,0.12,VWS V13.01,2013-05-30 18:36:00,
2013-05-30 13:42:00,69.4,63.3,28.90,SE,135,0.0,0.0,81,0.12,,---,0.12,VWS V13.01,2013-05-30 18:42:00,
2013-05-30 13:48:00,69.4,63.7,28.90,SE,135,0.0,0.0,82,0.12,,---,0.12,VWS V13.01,2013-05-30 18:48:00,
2013-05-30 13:54:00,69.2,63.5,28.90,SSE,158,0.0,0.0,82,0.12,,---,0.12,VWS V13.01,2013-05-30 18:54:00,
2013-05-30 14:00:00,69.0,63.3,28.89,South,180,0.0,0.0,82,0.12,,---,0.12,VWS V13.01,2013-05-30 19:00:00,
2013-05-30 14:06:00,69.2,63.8,28.89,SSW,202,0.0,0.0,83,0.12,,---,0.12,VWS V13.01,2013-05-30 19:06:00,
2013-05-30 14:12:00,69.9,64.5,28.88,SSE,158,0.0,0.0,83,0.12,,---,0.12,VWS V13.01,2013-05-30 19:12:00,
2013-05-30 14:18:00,70.1,64.4,28.88,SE,135,4.0,4.0,82,0.06,,---,0.12,VWS V13.01,2013-05-30 19:18:00,
2013-05-30 14:24:00,70.3,63.8,28.88,SSE,158,4.8,4.8,80,0.04,,---,0.12,VWS V13.01,2013-05-30 19:24:00,
2013-05-30 14:30:00,70.5,64.0,28.87,South,180,12.4,12.4,80,0.00,,---,0.12,VWS V13.01,2013-05-30 19:30:00,
2013-05-30 14:36:00,70.8,64.0,28.86,SSE,158,13.8,13.8,79,0.00,,---,0.12,VWS V13.01,2013-05-30 19:36:00,
2013-05-30 14:42:00,71.4,64.2,28.86,South,180,15.2,15.2,78,0.00,,---,0.12,VWS V13.01,2013-05-30 19:42:00,
2013-05-30 14:48:00,72.1,64.9,28.85,SSE,158,0.0,0.0,78,0.00,,---,0.12,VWS V13.01,2013-05-30 19:48:00,
2013-05-30 14:55:00,72.3,64.3,28.85,ESE,112,0.0,0.0,76,0.00,,---,0.12,VWS V13.01,2013-05-30 19:55:00,
2013-05-30 15:01:00,72.3,64.3,28.85,SSE,158,0.8,0.8,76,0.00,,---,0.12,VWS V13.01,2013-05-30 20:01:00,
2013-05-30 15:07:00,72.5,64.1,28.85,South,180,0.0,0.0,75,0.00,,---,0.12,VWS V13.01,2013-05-30 20:07:00,
2013-05-30 15:13:00,72.5,64.1,28.86,SE,135,0.0,0.0,75,0.00,,---,0.12,VWS V13.01,2013-05-30 20:13:00,
2013-05-30 15:19:00,72.3,64.3,28.86,SE,135,4.0,4.0,76,0.00,,---,0.12,VWS V13.01,2013-05-30 20:19:00,
2013-05-30 15:25:00,72.1,63.8,28.86,SE,135,12.8,12.8,75,0.00,,---,0.12,VWS V13.01,2013-05-30 20:25:00,
2013-05-30 15:31:00,72.1,63.8,28.86,SE,135,0.0,0.0,75,0.00,,---,0.12,VWS V13.01,2013-05-30 20:31:00,
2013-05-30 15:37:00,71.9,63.9,28.86,ESE,112,12.8,12.8,76,0.00,,---,0.12,VWS V13.01,2013-05-30 20:37:00,
2013-05-30 15:43:00,71.4,63.1,28.85,SSW,202,0.0,0.0,75,0.00,,---,0.12,VWS V13.01,2013-05-30 20:43:00,
2013-05-30 15:49:00,71.4,63.5,28.85,South,180,6.6,6.6,76,0.00,,---,0.12,VWS V13.01,2013-05-30 20:49:00,
2013-05-30 15:55:00,71.2,62.9,28.85,SE,135,0.0,0.0,75,0.00,,---,0.12,VWS V13.01,2013-05-30 20:55:00,
2013-05-30 16:01:00,70.8,62.5,28.85,SE,135,12.0,12.0,75,0.00,,---,0.12,VWS V13.01,2013-05-30 21:01:00,
2013-05-30 16:07:00,70.7,62.4,28.84,South,180,13.8,13.8,75,0.00,,---,0.12,VWS V13.01,2013-05-30 21:07:00,
2013-05-30 16:13:00,70.3,62.4,28.84,SE,135,0.0,0.0,76,0.00,,---,0.12,VWS V13.01,2013-05-30 21:13:00,
2013-05-30 16:19:00,70.1,62.6,28.85,South,180,0.0,0.0,77,0.00,,---,0.12,VWS V13.01,2013-05-30 21:19:00,
2013-05-30 16:25:00,70.1,62.6,28.85,SSW,202,10.6,10.6,77,0.00,,---,0.12,VWS V13.01,2013-05-30 21:25:00,
2013-05-30 16:31:00,69.8,62.6,28.85,SE,135,14.6,14.6,78,0.00,,---,0.12,VWS V13.01,2013-05-30 21:31:00,
2013-05-30 16:37:00,69.6,62.8,28.84,ESE,112,7.0,7.0,79,0.00,,---,0.12,VWS V13.01,2013-05-30 21:37:00,
2013-05-30 16:43:00,69.4,63.0,28.84,SE,135,5.8,5.8,80,0.00,,---,0.12,VWS V13.01,2013-05-30 21:43:00,
2013-05-30 16:49:00,69.4,63.0,28.84,SE,135,0.0,0.0,80,0.00,,---,0.12,VWS V13.01,2013-05-30 21:49:00,
2013-05-30 16:55:00,69.6,63.5,28.84,SE,135,0.0,0.0,81,0.00,,---,0.12,VWS V13.01,2013-05-30 21:55:00,
2013-05-30 17:01:00,69.6,63.5,28.84,SSE,158,0.0,0.0,81,0.00,,---,0.12,VWS V13.01,2013-05-30 22:01:00,
2013-05-30 17:07:00,69.9,63.8,28.84,SE,135,0.0,0.0,81,0.00,,---,0.12,VWS V13.01,2013-05-30 22:07:00,
2013-05-30 17:14:00,69.9,63.8,28.84,SSE,158,0.0,0.0,81,0.00,,---,0.12,VWS V13.01,2013-05-30 22:14:00,
2013-05-30 17:20:00,69.9,63.8,28.84,SSE,158,3.4,3.4,81,0.00,,---,0.12,VWS V13.01,2013-05-30 22:20:00,
2013-05-30 17:26:00,69.6,63.2,28.82,SE,135,0.0,0.0,80,0.02,,---,0.14,VWS V13.01,2013-05-30 22:26:00,
2013-05-30 17:32:00,69.6,63.5,28.81,SE,135,0.0,0.0,81,0.02,,---,0.14,VWS V13.01,2013-05-30 22:32:00,
2013-05-30 17:38:00,69.6,63.5,28.80,SE,135,0.0,0.0,81,0.02,,---,0.14,VWS V13.01,2013-05-30 22:38:00,
2013-05-30 17:44:00,69.9,64.2,28.80,SE,135,0.0,0.0,82,0.02,,---,0.14,VWS V13.01,2013-05-30 22:44:00,
2013-05-30 17:50:00,69.9,64.2,28.80,SE,135,0.0,0.0,82,0.02,,---,0.14,VWS V13.01,2013-05-30 22:50:00,
2013-05-30 17:56:00,70.3,64.6,28.80,SE,135,0.0,0.0,82,0.02,,---,0.14,VWS V13.01,2013-05-30 22:56:00,
2013-05-30 18:02:00,70.3,64.6,28.81,ESE,112,0.0,0.0,82,0.02,,---,0.14,VWS V13.01,2013-05-30 23:02:00,
2013-05-30 18:08:00,70.3,64.6,28.81,SE,135,3.0,3.0,82,0.02,,---,0.14,VWS V13.01,2013-05-30 23:08:00,
2013-05-30 18:14:00,69.9,64.2,28.81,SSE,158,14.2,14.2,82,0.02,,---,0.14,VWS V13.01,2013-05-30 23:14:00,
2013-05-30 18:20:00,69.9,64.2,28.81,SE,135,2.2,2.2,82,0.02,,---,0.14,VWS V13.01,2013-05-30 23:20:00,
2013-05-30 18:26:00,70.1,64.4,28.81,SSE,158,9.2,9.2,82,0.00,,---,0.14,VWS V13.01,2013-05-30 23:26:00,
2013-05-30 18:32:00,70.3,64.6,28.81,SSE,158,0.0,0.0,82,0.00,,---,0.14,VWS V13.01,2013-05-30 23:32:00,
2013-05-30 18:38:00,70.3,64.2,28.82,SE,135,0.0,0.0,81,0.00,,---,0.14,VWS V13.01,2013-05-30 23:38:00,
2013-05-30 18:44:00,70.1,64.0,28.82,SE,135,0.0,0.0,81,0.00,,---,0.14,VWS V13.01,2013-05-30 23:44:00,
2013-05-30 18:50:00,69.9,63.8,28.83,SE,135,8.8,8.8,81,0.00,,---,0.14,VWS V13.01,2013-05-30 23:50:00,
2013-05-30 18:56:00,69.8,63.7,28.83,SE,135,12.8,12.8,81,0.00,,---,0.14,VWS V13.01,2013-05-30 23:56:00,
2013-05-30 19:02:00,69.6,63.5,28.83,SE,135,10.2,10.2,81,0.00,,---,0.14,VWS V13.01,2013-05-31 00:02:00,
2013-05-30 19:08:00,69.6,63.9,28.83,SSW,202,8.0,8.0,82,0.00,,---,0.14,VWS V13.01,2013-05-31 00:08:00,
2013-05-30 19:14:00,69.6,63.9,28.83,SE,135,7.6,7.6,82,0.00,,---,0.14,VWS V13.01,2013-05-31 00:14:00,
2013-05-30 19:20:00,69.6,63.5,28.83,SE,135,14.2,14.2,81,0.00,,---,0.14,VWS V13.01,2013-05-31 00:20:00,
2013-05-30 19:26:00,69.8,63.7,28.84,SE,135,12.8,12.8,81,0.00,,---,0.14,VWS V13.01,2013-05-31 00:26:00,
2013-05-30 19:32:00,69.6,63.5,28.84,SE,135,0.0,0.0,81,0.00,,---,0.14,VWS V13.01,2013-05-31 00:32:00,
2013-05-30 19:38:00,69.6,63.2,28.85,SE,135,0.0,0.0,80,0.00,,---,0.14,VWS V13.01,2013-05-31 00:38:00,
2013-05-30 19:44:00,69.4,63.0,28.85,SSW,202,0.0,0.0,80,0.00,,---,0.14,VWS V13.01,2013-05-31 00:44:00,
2013-05-30 19:50:00,69.0,62.6,28.86,SE,135,14.2,14.2,80,0.00,,---,0.14,VWS V13.01,2013-05-31 00:50:00,
2013-05-30 19:57:00,68.9,62.5,28.86,South,180,9.2,9.2,80,0.00,,---,0.14,VWS V13.01,2013-05-31 00:57:00,
2013-05-30 20:03:00,68.7,62.3,28.86,SE,135,0.0,0.0,80,0.00,,---,0.14,VWS V13.01,2013-05-31 01:03:00,
2013-05-30 20:09:00,68.7,62.3,28.86,South,180,8.8,8.8,80,0.00,,---,0.14,VWS V13.01,2013-05-31 01:09:00,
2013-05-30 20:15:00,68.5,62.1,28.87,SE,135,8.0,8.0,80,0.00,,---,0.14,VWS V13.01,2013-05-31 01:15:00,
2013-05-30 20:21:00,68.3,61.9,28.87,SE,135,0.0,0.0,80,0.00,,---,0.14,VWS V13.01,2013-05-31 01:21:00,
2013-05-30 20:27:00,68.1,62.1,28.87,SE,135,0.0,0.0,81,0.00,,---,0.14,VWS V13.01,2013-05-31 01:27:00,
2013-05-30 20:33:00,67.8,61.8,28.87,SSE,158,2.2,2.2,81,0.00,,---,0.14,VWS V13.01,2013-05-31 01:33:00,
2013-05-30 20:39:00,67.6,61.6,28.87,ESE,112,1.2,1.2,81,0.00,,---,0.14,VWS V13.01,2013-05-31 01:39:00,
2013-05-30 20:45:00,67.2,60.8,28.87,SSE,158,0.0,0.0,80,0.00,,---,0.14,VWS V13.01,2013-05-31 01:45:00,
2013-05-30 20:51:00,66.9,60.5,28.86,SSW,202,10.6,10.6,80,0.00,,---,0.14,VWS V13.01,2013-05-31 01:51:00,
2013-05-30 20:57:00,66.7,60.3,28.87,SE,135,0.0,0.0,80,0.00,,---,0.14,VWS V13.01,2013-05-31 01:57:00,
2013-05-30 21:03:00,66.3,60.0,28.87,ESE,112,0.0,0.0,80,0.00,,---,0.14,VWS V13.01,2013-05-31 02:03:00,
2013-05-30 21:09:00,66.2,60.2,28.87,SSE,158,0.0,0.0,81,0.00,,---,0.14,VWS V13.01,2013-05-31 02:09:00,
2013-05-30 21:15:00,66.0,60.0,28.87,SE,135,0.0,0.0,81,0.00,,---,0.14,VWS V13.01,2013-05-31 02:15:00,
2013-05-30 21:21:00,65.8,59.8,28.88,SE,135,0.0,0.0,81,0.00,,---,0.14,VWS V13.01,2013-05-31 02:21:00,
2013-05-30 21:27:00,65.6,59.6,28.88,South,180,0.0,0.0,81,0.00,,---,0.14,VWS V13.01,2013-05-31 02:27:00,
2013-05-30 21:33:00,65.4,59.4,28.88,SSE,158,0.0,0.0,81,0.00,,---,0.14,VWS V13.01,2013-05-31 02:33:00,
2013-05-30 21:39:00,65.1,59.1,28.88,SSE,158,0.0,0.0,81,0.00,,---,0.14,VWS V13.01,2013-05-31 02:39:00,
2013-05-30 21:45:00,65.1,59.5,28.88,SE,135,13.8,13.8,82,0.00,,---,0.14,VWS V13.01,2013-05-31 02:45:00,
2013-05-30 21:51:00,64.9,59.3,28.88,SE,135,4.4,4.4,82,0.00,,---,0.14,VWS V13.01,2013-05-31 02:51:00,
2013-05-30 21:57:00,64.9,59.3,28.89,ESE,112,11.0,11.0,82,0.00,,---,0.14,VWS V13.01,2013-05-31 02:57:00,
2013-05-30 22:03:00,64.7,59.4,28.89,SSE,158,6.2,6.2,83,0.00,,---,0.14,VWS V13.01,2013-05-31 03:03:00,
2013-05-30 22:10:00,64.5,59.2,28.89,South,180,0.0,0.0,83,0.00,,---,0.14,VWS V13.01,2013-05-31 03:10:00,
2013-05-30 22:16:00,64.5,59.2,28.89,SE,135,0.0,0.0,83,0.00,,---,0.14,VWS V13.01,2013-05-31 03:16:00,
2013-05-30 22:22:00,64.2,58.9,28.89,South,180,0.0,0.0,83,0.00,,---,0.14,VWS V13.01,2013-05-31 03:22:00,
2013-05-30 22:28:00,64.2,58.9,28.89,SSE,158,4.0,4.0,83,0.00,,---,0.14,VWS V13.01,2013-05-31 03:28:00,
2013-05-30 22:34:00,64.2,58.9,28.90,SW,225,6.2,6.2,83,0.00,,---,0.14,VWS V13.01,2013-05-31 03:34:00,
2013-05-30 22:40:00,64.0,59.1,28.90,SE,135,0.0,0.0,84,0.00,,---,0.14,VWS V13.01,2013-05-31 03:40:00,
2013-05-30 22:46:00,64.0,59.1,28.90,SE,135,0.0,0.0,84,0.00,,---,0.14,VWS V13.01,2013-05-31 03:46:00,
2013-05-30 22:52:00,64.0,59.1,28.89,SE,135,0.0,0.0,84,0.00,,---,0.14,VWS V13.01,2013-05-31 03:52:00,
2013-05-30 22:58:00,64.0,59.1,28.90,SE,135,21.0,21.0,84,0.00,,---,0.14,VWS V13.01,2013-05-31 03:58:00,
2013-05-30 23:02:00,64.0,59.1,28.89,SSE,158,0.0,0.0,84,0.00,,---,0.14,VWS V13.01,2013-05-31 04:02:00,
2013-05-30 23:04:00,64.0,59.1,28.89,SE,135,10.2,10.2,84,0.00,,---,0.14,VWS V13.01,2013-05-31 04:04:00,
2013-05-30 23:10:00,63.8,58.9,28.90,SSE,158,17.8,17.8,84,0.00,,---,0.14,VWS V13.01,2013-05-31 04:10:00,
2013-05-30 23:12:00,63.8,58.9,28.89,SSW,202,0.0,0.0,84,0.00,,---,0.14,VWS V13.01,2013-05-31 04:12:00,
2013-05-30 23:16:00,63.6,58.7,28.89,SSE,158,15.2,15.2,84,0.00,,---,0.14,VWS V13.01,2013-05-31 04:16:00,
2013-05-30 23:22:00,63.6,58.7,28.89,South,180,3.4,3.4,84,0.00,,---,0.14,VWS V13.01,2013-05-31 04:22:00,
2013-05-30 23:24:00,63.6,58.7,28.89,SE,135,9.8,9.8,84,0.00,,---,0.14,VWS V13.01,2013-05-31 04:24:00,
2013-05-30 23:30:00,63.6,58.7,28.89,ESE,112,0.0,0.0,84,0.00,,---,0.14,VWS V13.01,2013-05-31 04:30:00,
2013-05-30 23:36:00,63.6,58.7,28.89,SE,135,0.0,0.0,84,0.00,,---,0.14,VWS V13.01,2013-05-31 04:36:00,
2013-05-30 23:42:00,63.5,58.6,28.89,SE,135,0.0,0.0,84,0.00,,---,0.14,VWS V13.01,2013-05-31 04:42:00,
2013-05-30 23:48:00,63.3,58.4,28.89,SSE,158,0.0,0.0,84,0.00,,---,0.14,VWS V13.01,2013-05-31 04:48:00,
2013-05-30 23:54:00,63.1,58.2,28.89,SE,135,0.0,0.0,84,0.00,,---,0.14,VWS V13.01,2013-05-31 04:54:00,